When you browse on this site, cookies collect data to enhance your experience and personalize the content and advertising you see.
Visit our Privacy Policy to learn more. By continuing to use the site, you agree to this use of cookies and data.
  • In Latvia
  • List of Countries
  • For 7 days
  • Water Temperature
  • Weather Map
  • Weather Widgets
  • user-avatar
    Login

    Hourly Weather Trenton

    Today, 18 October, Friday

    Time Temperature Precipitation Wind Pressure Humidity
    00:00 +10°C° 0 mm 5 mps 752 mmHg 65%
    01:00 +11°C° 0 mm 4 mps 753 mmHg 66%
    02:00 +11°C° 0 mm 4 mps 753 mmHg 66%
    03:00 +10°C° 0 mm 5 mps 753 mmHg 65%
    04:00 +10°C° 0 mm 5 mps 754 mmHg 65%
    05:00 +10°C° 0 mm 4 mps 754 mmHg 66%
    06:00 +10°C° 0 mm 4 mps 755 mmHg 67%
    07:00 +10°C° 0 mm 4 mps 756 mmHg 68%
    08:00 +10°C° 0 mm 5 mps 756 mmHg 64%
    09:00 +12°C° 0 mm 5 mps 756 mmHg 59%
    10:00 +13°C° 0 mm 5 mps 757 mmHg 55%
    11:00 +13°C° 0 mm 5 mps 757 mmHg 53%
    12:00 +14°C° 0 mm 5 mps 757 mmHg 51%
    13:00 +14°C° 0 mm 5 mps 757 mmHg 48%
    14:00 +14°C° 0 mm 5 mps 757 mmHg 50%
    15:00 +13°C° 0 mm 4 mps 758 mmHg 51%
    16:00 +13°C° 0 mm 4 mps 758 mmHg 52%
    17:00 +12°C° 0 mm 3 mps 758 mmHg 55%
    18:00 +11°C° 0 mm 3 mps 759 mmHg 58%
    19:00 +9°C° 0 mm 3 mps 760 mmHg 61%
    20:00 +9°C° 0 mm 3 mps 760 mmHg 62%
    21:00 +8°C° 0 mm 3 mps 761 mmHg 63%
    22:00 +8°C° 0 mm 3 mps 761 mmHg 64%
    23:00 +7°C° 0 mm 2 mps 761 mmHg 65%

    Tomorrow, 19 October, Saturday

    Time Temperature Precipitation Wind Pressure Humidity
    00:00 +7°C° 0 mm 2 mps 761 mmHg 67%
    01:00 +7°C° 0 mm 2 mps 761 mmHg 68%
    02:00 +6°C° 0 mm 2 mps 761 mmHg 70%
    03:00 +6°C° 0 mm 2 mps 761 mmHg 71%
    04:00 +6°C° 0 mm 2 mps 761 mmHg 73%
    05:00 +6°C° 0 mm 2 mps 761 mmHg 72%
    06:00 +6°C° 0 mm 2 mps 762 mmHg 71%
    07:00 +6°C° 0 mm 2 mps 762 mmHg 71%
    08:00 +8°C° 0 mm 2 mps 762 mmHg 64%
    09:00 +10°C° 0 mm 2 mps 762 mmHg 57%
    10:00 +13°C° 0 mm 2 mps 762 mmHg 50%
    11:00 +14°C° 0 mm 2 mps 761 mmHg 46%
    12:00 +15°C° 0 mm 2 mps 761 mmHg 41%
    13:00 +17°C° 0 mm 2 mps 761 mmHg 37%
    14:00 +17°C° 0 mm 2 mps 760 mmHg 39%
    15:00 +16°C° 0 mm 1 mps 760 mmHg 41%
    16:00 +16°C° 0 mm 1 mps 760 mmHg 43%
    17:00 +15°C° 0 mm 1 mps 760 mmHg 47%
    18:00 +14°C° 0 mm 1 mps 760 mmHg 51%
    19:00 +12°C° 0 mm 1 mps 761 mmHg 55%
    20:00 +12°C° 0 mm 1 mps 761 mmHg 57%
    21:00 +12°C° 0 mm 1 mps 761 mmHg 59%
    22:00 +12°C° 0 mm 1 mps 761 mmHg 61%
    23:00 +12°C° 0 mm 1 mps 760 mmHg 63%

    Day after tomorrow, 20 October, Sunday

    Time Temperature Precipitation Wind Pressure Humidity
    00:00 +12°C° 0 mm 1 mps 760 mmHg 65%
    01:00 +12°C° 0 mm 1 mps 760 mmHg 67%
    02:00 +11°C° 0 mm 1 mps 760 mmHg 70%
    03:00 +11°C° 0 mm 1 mps 760 mmHg 72%
    04:00 +11°C° 0 mm 1 mps 760 mmHg 74%
    05:00 +12°C° 0 mm 1 mps 760 mmHg 73%
    06:00 +12°C° 0 mm 1 mps 760 mmHg 73%
    07:00 +12°C° 0 mm 1 mps 760 mmHg 73%
    08:00 +13°C° 0 mm 1 mps 760 mmHg 73%
    09:00 +13°C° 0 mm 1 mps 760 mmHg 73%
    10:00 +14°C° 0 mm 1 mps 760 mmHg 73%
    11:00 +14°C° 0 mm 1 mps 760 mmHg 71%
    12:00 +15°C° 0 mm 1 mps 760 mmHg 70%
    13:00 +15°C° 0 mm 1 mps 760 mmHg 68%
    14:00 +16°C° 0 mm 2 mps 760 mmHg 67%
    15:00 +16°C° 0 mm 2 mps 759 mmHg 66%
    16:00 +16°C° 0 mm 2 mps 759 mmHg 64%
    17:00 +15°C° 0 mm 2 mps 760 mmHg 69%
    18:00 +14°C° 0 mm 2 mps 760 mmHg 74%
    19:00 +13°C° 0 mm 2 mps 760 mmHg 78%
    20:00 +12°C° 0 mm 2 mps 760 mmHg 80%
    21:00 +12°C° 0 mm 2 mps 761 mmHg 81%
    22:00 +12°C° 0 mm 2 mps 761 mmHg 83%
    23:00 +10°C° 0 mm 2 mps 761 mmHg 82%

    21 October, Monday

    Time Temperature Precipitation Wind Pressure Humidity
    00:00 +10°C° 0 mm 2 mps 761 mmHg 81%
    01:00 +10°C° 0 mm 2 mps 761 mmHg 80%
    02:00 +10°C° 0 mm 2 mps 761 mmHg 81%
    03:00 +9°C° 0 mm 2 mps 761 mmHg 82%
    04:00 +9°C° 0 mm 2 mps 762 mmHg 82%
    05:00 +9°C° 0 mm 2 mps 762 mmHg 81%
    06:00 +9°C° 0 mm 2 mps 762 mmHg 80%
    07:00 +9°C° 0 mm 2 mps 762 mmHg 79%
    08:00 +12°C° 0 mm 2 mps 762 mmHg 72%
    09:00 +15°C° 0 mm 2 mps 762 mmHg 64%
    10:00 +17°C° 0 mm 2 mps 762 mmHg 57%
    11:00 +18°C° 0 mm 3 mps 762 mmHg 54%
    12:00 +19°C° 0 mm 3 mps 762 mmHg 52%
    13:00 +20°C° 0 mm 3 mps 762 mmHg 49%
    14:00 +19°C° 0 mm 3 mps 762 mmHg 53%
    15:00 +19°C° 0 mm 3 mps 761 mmHg 58%
    16:00 +18°C° 0 mm 3 mps 761 mmHg 62%
    17:00 +17°C° 0 mm 3 mps 761 mmHg 69%
    18:00 +16°C° 0 mm 2 mps 761 mmHg 76%
    19:00 +15°C° 0 mm 2 mps 762 mmHg 83%
    20:00 +15°C° 0 mm 2 mps 761 mmHg 82%
    21:00 +15°C° 0 mm 2 mps 761 mmHg 81%
    22:00 +16°C° 0 mm 2 mps 761 mmHg 81%
    23:00 +16°C° 0 mm 2 mps 760 mmHg 82%

    22 October, Tuesday

    Time Temperature Precipitation Wind Pressure Humidity
    00:00 +16°C° 0 mm 3 mps 760 mmHg 83%
    01:00 +16°C° 0 mm 3 mps 760 mmHg 85%
    02:00 +16°C° 0 mm 2 mps 759 mmHg 86%
    03:00 +16°C° 0 mm 2 mps 759 mmHg 87%
    04:00 +15°C° 0 mm 2 mps 758 mmHg 88%
    05:00 +15°C° 0 mm 2 mps 758 mmHg 89%
    06:00 +15°C° 0 mm 2 mps 757 mmHg 89%
    07:00 +15°C° 0 mm 2 mps 757 mmHg 89%
    08:00 +16°C° 0 mm 2 mps 756 mmHg 86%
    09:00 +17°C° 0 mm 2 mps 756 mmHg 82%
    10:00 +18°C° 0 mm 2 mps 755 mmHg 79%
    11:00 +18°C° 0.2 mm 2 mps 754 mmHg 80%
    12:00 +18°C° 0.2 mm 2 mps 754 mmHg 80%
    13:00 +19°C° 0.2 mm 1 mps 753 mmHg 81%
    14:00 +19°C° 0.4 mm 1 mps 752 mmHg 83%
    15:00 +18°C° 0.4 mm 1 mps 751 mmHg 86%
    16:00 +18°C° 0.4 mm 1 mps 751 mmHg 88%
    17:00 +16°C° 0.2 mm 2 mps 751 mmHg 87%
    18:00 +16°C° 0.2 mm 3 mps 751 mmHg 86%
    19:00 +15°C° 0.2 mm 4 mps 751 mmHg 85%
    20:00 +14°C° 0.2 mm 5 mps 752 mmHg 80%
    21:00 +13°C° 0.2 mm 5 mps 752 mmHg 75%
    22:00 +13°C° 0.2 mm 6 mps 753 mmHg 70%
    23:00 +12°C° 0 mm 5 mps 754 mmHg 69%

    23 October, Wednesday

    Time Temperature Precipitation Wind Pressure Humidity
    00:00 +10°C° 0 mm 5 mps 754 mmHg 67%
    01:00 +9°C° 0 mm 5 mps 755 mmHg 65%
    02:00 +9°C° 0 mm 5 mps 755 mmHg 65%
    03:00 +8°C° 0 mm 5 mps 756 mmHg 65%
    04:00 +8°C° 0 mm 4 mps 756 mmHg 65%
    05:00 +8°C° 0 mm 4 mps 757 mmHg 65%
    06:00 +8°C° 0 mm 4 mps 757 mmHg 65%
    07:00 +8°C° 0 mm 4 mps 758 mmHg 65%
    08:00 +9°C° 0 mm 5 mps 758 mmHg 60%
    09:00 +10°C° 0 mm 5 mps 759 mmHg 54%
    10:00 +13°C° 0 mm 6 mps 759 mmHg 49%
    11:00 +13°C° 0 mm 6 mps 759 mmHg 48%
    12:00 +14°C° 0 mm 6 mps 759 mmHg 46%
    13:00 +15°C° 0 mm 6 mps 760 mmHg 44%
    14:00 +15°C° 0 mm 5 mps 760 mmHg 45%
    15:00 +14°C° 0 mm 4 mps 760 mmHg 46%
    16:00 +14°C° 0 mm 4 mps 760 mmHg 47%
    17:00 +13°C° 0 mm 3 mps 761 mmHg 49%
    18:00 +13°C° 0 mm 2 mps 762 mmHg 50%
    19:00 +12°C° 0 mm 2 mps 762 mmHg 52%
    20:00 +12°C° 0 mm 2 mps 763 mmHg 54%
    21:00 +10°C° 0 mm 2 mps 763 mmHg 55%
    22:00 +11°C° 0 mm 1 mps 763 mmHg 56%
    23:00 +11°C° 0 mm 1 mps 763 mmHg 57%
    Show more